This is the latest recevied weather packets stored in our database for station/object K3SV. If no packets are shown the sender has not sent any weather packets the latest 10 day(s).
| Time | Temp. | Humidity | Pressure | Rain* | Wind** | Luminosity | Snow |
|---|---|---|---|---|---|---|---|
| 1777331401 | 25.56° C | 68% | 1016.7 hPa | 0 mm | - | 34 W/m² | - |
| 1777331099 | 25.56° C | 68% | 1016.7 hPa | 0 mm | - | 36 W/m² | - |
| 1777330795 | 25.56° C | 69% | 1016.4 hPa | 0 mm | - | 38 W/m² | - |
| 1777330493 | 26.11° C | 67% | 1016.5 hPa | 0 mm | - | 38 W/m² | - |
| 1777330190 | 26.11° C | 67% | 1016.4 hPa | 0 mm | - | 41 W/m² | - |
| 1777329888 | 26.67° C | 67% | 1016.4 hPa | 0 mm | - | 51 W/m² | - |
| 1777329587 | 26.67° C | 65% | 1016.4 hPa | 0 mm | - | 120 W/m² | - |
| 1777329284 | 26.67° C | 65% | 1016.2 hPa | 0 mm | - | 135 W/m² | - |
| 1777328982 | 27.22° C | 64% | 1016.1 hPa | 0 mm | - | 151 W/m² | - |
| 1777328680 | 27.22° C | 64% | 1016.1 hPa | 0 mm | - | 174 W/m² | - |
| 1777328377 | 27.78° C | 64% | 1016.1 hPa | 0 mm | - | 204 W/m² | - |
| 1777328076 | 28.89° C | 61% | 1015.9 hPa | 0 mm | - | 214 W/m² | - |
| 1777327773 | 28.89° C | 61% | 1016 hPa | 0 mm | - | 224 W/m² | - |
| 1777327471 | 28.89° C | 61% | 1015.7 hPa | 0 mm | - | 281 W/m² | - |
| 1777327168 | 28.89° C | 61% | 1015.7 hPa | 0 mm | - | 275 W/m² | - |
| 1777326865 | 28.33° C | 61% | 1015.9 hPa | 0 mm | - | 260 W/m² | - |
| 1777326561 | 28.89° C | 60% | 1015.7 hPa | 0 mm | - | 263 W/m² | - |
| 1777326259 | 28.89° C | 60% | 1015.8 hPa | 0 mm | - | 284 W/m² | - |
| 1777325956 | 28.89° C | 60% | 1015.8 hPa | 0 mm | - | 286 W/m² | - |
| 1777325655 | 29.44° C | 59% | 1015.8 hPa | 0 mm | - | 368 W/m² | - |
| 1777325353 | 29.44° C | 59% | 1015.6 hPa | 0 mm | - | 375 W/m² | - |
| 1777325050 | 28.89° C | 58% | 1015.8 hPa | 0 mm | - | 343 W/m² | - |
| 1777324746 | 28.89° C | 57% | 1015.8 hPa | 0 mm | - | 354 W/m² | - |
| 1777324445 | 29.44° C | 59% | 1015.7 hPa | 0 mm | - | 380 W/m² | - |
| 1777324142 | 29.44° C | 58% | 1015.4 hPa | 0 mm | - | 391 W/m² | - |
* Rain latest hour (hover to see other rain measurements)
** Current wind speed in m/s (hover to see current wind gust speed)